Date String (YYYY-MM-DD hh:mm:ss) UTC,Instrument flags,Ambient pressure (hPa),Sample flow (lpm),Bypass flow (lpm),Sample temperature (°C),Ambient temperature (°C),ASC tube jacket temperature (°C),LED temperature (°C),Box temperature (°C),Sample RH (%),Span deviation,Mass concentration (μg/m³),Mass concentration (μg/m³),Mass concentration (μg/m³)
DateTimeUTC,F1_M11,P_M11,Q1_M11,Q2_M11,T1_M11,T2_M11,T3_M11,T4_M11,T5_M11,U1_M11,ZSPAN_M11,X0_M11,X2_M11,X1_M11
2021-08-30 20:00:00,,0824.5,5.00,0.00,29.0,26.4,00.0,38.1,30.6,19.5,0002.1,0046.46,0028.61,0026.70
2021-08-30 20:01:00,,0824.5,5.00,0.00,29.0,26.8,00.0,38.1,30.7,18.3,0001.9,0046.81,0028.65,0026.73
2021-08-30 20:02:00,,0824.4,5.00,0.00,29.0,27.2,00.0,38.1,30.8,17.4,0001.8,0047.24,0028.72,0026.81
2021-08-30 20:03:00,,0824.4,4.99,0.00,29.1,27.6,00.0,38.1,30.9,14.0,0001.7,0046.05,0028.91,0027.02
2021-08-30 20:04:00,,0824.5,5.00,0.00,29.1,27.9,00.0,38.1,31.0,13.8,0001.6,0045.72,0029.16,0027.25
2021-08-30 20:05:00,,0824.5,5.00,0.00,29.2,28.2,00.0,38.1,31.1,13.0,0001.7,0045.41,0029.40,0027.53
2021-08-30 20:06:00,,0824.4,5.00,0.00,29.3,28.4,00.0,38.1,31.2,13.0,0001.8,0045.39,0029.61,0027.80
2021-08-30 20:07:00,,0824.5,5.00,0.00,29.3,28.0,00.0,38.1,31.1,12.5,0001.8,0045.68,0029.85,0028.02
2021-08-30 20:08:00,,0824.4,5.00,0.00,29.2,26.4,00.0,38.1,30.6,12.8,0002.0,0045.79,0030.11,0028.32
2021-08-30 20:09:00,,0824.4,4.99,0.00,29.1,26.0,00.0,38.1,30.5,12.4,0002.0,0044.90,0030.40,0028.67
2021-08-30 20:10:00,,0824.4,5.01,0.00,29.0,26.4,00.0,38.1,30.6,12.1,0001.9,0043.50,0030.73,0029.04
2021-08-30 20:11:00,,0824.4,5.00,0.00,29.0,26.9,00.0,38.1,30.7,12.9,0001.8,0044.06,0031.05,0029.40
2021-08-30 20:12:00,,0824.4,5.00,0.00,29.1,27.3,00.0,38.1,30.8,14.8,0001.8,0043.73,0031.22,0029.65
2021-08-30 20:13:00,,0824.4,5.02,0.00,29.1,27.7,00.0,38.1,30.9,15.8,0002.0,0042.35,0031.31,0029.76
2021-08-30 20:14:00,,0824.4,5.00,0.00,29.2,28.0,00.0,38.1,31.0,15.8,0002.2,0042.17,0031.29,0029.74
2021-08-30 20:15:00,,0824.3,5.00,0.00,29.2,28.3,00.0,38.1,31.2,14.8,0002.3,0041.62,0031.35,0029.81
2021-08-30 20:16:00,,0824.3,4.99,0.00,29.3,28.5,00.0,38.2,31.2,14.7,0002.4,0041.60,0031.38,0029.82
2021-08-30 20:17:00,,0824.2,5.00,0.00,29.3,27.4,00.0,38.2,30.9,14.3,0002.5,0042.28,0031.46,0029.87
2021-08-30 20:18:00,,0824.3,5.02,0.00,29.2,26.0,00.0,38.2,30.5,14.7,0002.6,0043.42,0031.56,0029.97
2021-08-30 20:19:00,,0824.2,4.99,0.00,29.1,26.2,00.0,38.2,30.6,14.2,0002.6,0042.90,0031.66,0030.02
2021-08-30 20:20:00,,0824.3,5.00,0.00,29.1,26.6,00.0,38.1,30.7,13.8,0002.6,0043.15,0031.71,0030.07
2021-08-30 20:21:00,,0824.2,5.00,0.00,29.1,27.1,00.0,38.1,30.8,14.0,0002.6,0043.70,0031.65,0030.03
2021-08-30 20:22:00,,0824.3,5.00,0.00,29.1,27.5,00.0,38.1,30.9,13.5,0002.6,0043.21,0031.62,0030.03
2021-08-30 20:23:00,,0824.3,5.01,0.00,29.2,27.8,00.0,38.1,31.0,13.6,0002.6,0043.37,0031.73,0030.11
2021-08-30 20:24:00,,0824.2,4.99,0.00,29.2,28.1,00.0,38.2,31.1,13.5,0002.7,0043.62,0031.88,0030.29
2021-08-30 20:25:00,,0824.4,5.01,0.00,29.3,28.3,00.0,38.2,31.2,13.5,0002.6,0043.73,0032.06,0030.52
2021-08-30 20:26:00,,0824.2,5.00,0.00,29.3,27.4,00.0,38.2,31.0,13.8,0002.5,0043.86,0032.09,0030.59
2021-08-30 20:27:00,,0824.3,5.00,0.00,29.2,25.9,00.0,38.2,30.6,14.4,0002.3,0043.76,0032.09,0030.61
2021-08-30 20:28:00,,0824.3,5.00,0.00,29.1,26.1,00.0,38.2,30.6,14.1,0002.2,0043.52,0032.00,0030.53
2021-08-30 20:29:00,,0824.2,5.00,0.00,29.1,26.6,00.0,38.2,30.7,13.5,0002.2,0041.81,0031.91,0030.47
2021-08-30 20:30:00,,0824.3,4.99,0.00,29.1,27.0,00.0,38.1,30.8,12.7,0002.0,0041.37,0031.87,0030.46
2021-08-30 20:31:00,,0824.3,5.01,0.00,29.1,27.4,00.0,38.1,30.9,13.4,0002.0,0041.35,0031.84,0030.42
2021-08-30 20:32:00,,0824.3,5.01,0.00,29.2,27.8,00.0,38.1,31.0,13.6,0002.1,0041.02,0031.81,0030.38
2021-08-30 20:33:00,,0824.3,5.00,0.00,29.2,28.1,00.0,38.1,31.1,14.2,0002.2,0041.17,0031.73,0030.30
2021-08-30 20:34:00,,0824.3,5.00,0.00,29.3,28.0,00.0,38.2,31.1,13.8,0002.2,0042.78,0031.61,0030.20
2021-08-30 20:35:00,,0824.2,5.01,0.00,29.2,26.5,00.0,38.2,30.6,13.9,0002.0,0043.23,0031.56,0030.19
2021-08-30 20:36:00,,0824.2,5.00,0.00,29.0,25.9,00.0,38.1,30.4,14.0,0002.1,0043.44,0031.48,0030.12
2021-08-30 20:37:00,,0824.2,5.00,0.00,29.0,26.3,00.0,38.1,30.6,14.1,0002.0,0043.49,0031.42,0030.05
2021-08-30 20:38:00,,0824.2,4.99,0.00,29.0,26.7,00.0,38.1,30.7,14.4,0002.1,0043.44,0031.40,0030.04
2021-08-30 20:39:00,,0824.2,4.99,0.00,29.0,27.1,00.0,38.1,30.8,13.9,0002.1,0043.00,0031.46,0030.12
2021-08-30 20:40:00,,0824.2,5.01,0.00,29.1,27.5,00.0,38.1,30.9,13.3,0002.3,0042.89,0031.51,0030.18
2021-08-30 20:41:00,,0824.2,5.01,0.00,29.1,27.9,00.0,38.1,31.0,14.0,0002.3,0043.01,0031.47,0030.15
2021-08-30 20:42:00,,0824.2,4.99,0.00,29.2,28.2,00.0,38.1,31.1,14.0,0002.3,0043.41,0031.36,0030.10
2021-08-30 20:43:00,,0824.2,5.00,0.00,29.3,28.1,00.0,38.2,31.1,14.2,0002.1,0043.46,0031.40,0030.12
2021-08-30 20:44:00,,0824.1,5.00,0.00,29.2,26.6,00.0,38.1,30.7,15.0,0002.1,0043.17,0031.50,0030.14
2021-08-30 20:45:00,,0824.1,5.01,0.00,29.0,25.8,00.0,38.1,30.4,15.9,0002.2,0041.64,0031.43,0030.05
2021-08-30 20:46:00,,0824.1,5.00,0.00,29.0,26.2,00.0,38.1,30.5,16.3,0002.2,0041.91,0031.26,0029.85
2021-08-30 20:47:00,,0824.1,5.00,0.00,29.0,26.6,00.0,38.1,30.6,15.5,0002.0,0041.54,0031.20,0029.73
2021-08-30 20:48:00,,0824.1,5.01,0.00,29.0,27.1,00.0,38.1,30.8,15.7,0001.9,0042.14,0031.08,0029.57
2021-08-30 20:49:00,,0824.1,5.01,0.00,29.0,27.5,00.0,38.1,30.9,16.1,0002.0,0042.21,0030.89,0029.32
2021-08-30 20:50:00,,0824.1,5.01,0.00,29.1,27.8,00.0,38.1,31.0,17.0,0001.9,0043.04,0030.64,0029.07
2021-08-30 20:51:00,,0824.1,5.00,0.00,29.2,28.1,00.0,38.1,31.1,17.1,0001.5,0043.23,0030.37,0028.80
2021-08-30 20:52:00,,0824.1,5.00,0.00,29.2,28.1,00.0,38.1,31.1,17.2,0001.6,0043.18,0030.15,0028.56
2021-08-30 20:53:00,,0824.1,5.00,0.00,29.2,26.7,00.0,38.1,30.7,17.6,0001.7,0043.77,0029.93,0028.31
2021-08-30 20:54:00,,0824.1,5.00,0.00,29.0,25.8,00.0,38.1,30.5,16.9,0001.8,0044.37,0029.75,0028.06
2021-08-30 20:55:00,,0824.1,5.01,0.00,29.0,26.2,00.0,38.1,30.5,16.4,0001.8,0045.04,0029.55,0027.90
2021-08-30 20:56:00,,0824.1,5.01,0.00,29.0,26.6,00.0,38.1,30.6,16.4,0001.7,0047.06,0029.57,0027.90
2021-08-30 20:57:00,,0824.1,4.99,0.00,29.0,27.0,00.0,38.1,30.8,15.9,0001.9,0046.51,0029.62,0027.95
2021-08-30 20:58:00,,0824.1,5.00,0.00,29.0,27.5,00.0,38.0,30.9,14.4,0002.1,0046.95,0029.69,0028.00
2021-08-30 20:59:00,,0824.1,5.00,0.00,29.1,27.8,00.0,38.1,31.0,13.9,0002.3,0047.42,0029.84,0028.16
